Skip Page Navigation
NASA JPL Caltech
NASA Logo - Jet Propulsion Laboratory + View the NASA Portal
+ Near-Earth Object (NEO) Program
Search JPL
JPL Home Earth Solar System Stars & Galaxies Technology
JPL Solar System Dynamics
BODIES ORBITS EPHEMERIDES TOOLS PHYSICAL DATA DISCOVERY FAQ SITE MAP
JPL Small-Body Database Browser
Search: [ help ]  
(2010 CA)
Classification: Apollo [NEO]          SPK-ID: 3506746
Ephemeris | Orbit Diagram | Orbital Elements | Physical Parameters | Close-Approach Data ]

[ hide orbit diagram ]
Orbit Diagram
Note: Make sure you have Java enabled on your browser to see the applet. This applet is provided as a 3D orbit visualization tool. The applet was implemented using 2-body methods, and hence should not be used for determining accurate long-term trajectories (over several years or decades) or planetary encounter circumstances. For accurate long-term ephemerides, please instead use our Horizons system.
Orbit Viewer

Additional Notes: the orbits shown in the applet are color coded. The planets are white lines, and the asteroid/comet is a blue line. The bright white line indicates the portion of the orbit that is above the ecliptic plane, and the darker portion is below the ecliptic plane. Likewise for the asteroid/comet orbit, the light blue indicates the portion above the ecliptic plane, and the dark blue the portion below the ecliptic plane.

Orbit Viewer applet originally written and kindly provided by Osamu Ajiki (AstroArts), and further modified by Ron Baalke (JPL).


Orbital Elements at Epoch 2455236.5 (2010-Feb-09.0) TDB
Reference: JPL 12 (heliocentric ecliptic J2000)
 Element Value Uncertainty (1-sigma)   Units 
e .4597568022616 0.0014265  
a 1.317974783221259 0.0023758 AU
q .7120269114260274 0.00059653 AU
i 9.91385705113901 0.031493 deg
node 134.6649176708669 0.0028122 deg
peri 93.02981443244909 0.00086436 deg
M 321.3515027712309 0.14235 deg
tp 2455295.832027518572
(2010-Apr-09.33202752)
0.058105 JED
period 552.6613306658235
1.51
1.4944
0.004091
d
yr
n .6513935027194446 0.0017613 deg/d
Q 1.92392265501649 0.0034681 AU
  Orbit Determination Parameters
   # obs. used (total)      60  
   data-arc span      9 days  
   first obs. used      2010-02-05  
   last obs. used      2010-02-14  
   planetary ephem.      DE405  
   SB-pert. ephem.      SB405-CPV-2  
   condition code      8  
   fit RMS      .56666  
   data source      ORB  
   producer      Otto Matic  
   solution date      2011-Sep-14 20:49:38  

Additional Information
 Earth MOID = .000134522 AU 
 T_jup = 4.829 
[ show covariance matrix ]

Ephemeris | Orbit Diagram | Orbital Elements | Physical Parameters | Close-Approach Data ]

Physical Parameter Table
Parameter Symbol Value Units Sigma Reference Notes
absolute magnitude H 24.472 mag .53129 12 autocmod 2.5a

[ show close-approach data ]
Ephemeris | Orbit Diagram | Orbital Elements | Physical Parameters | Close-Approach Data ]
ABOUT SSD CREDITS/AWARDS PRIVACY/COPYRIGHT GLOSSARY LINKS
FirstGov 2013-May-20 17:04 UT
(server date/time)  
NASA Home Page
Site Manager:   Donald K. Yeomans
Webmaster  Alan B. Chamberlin